Vorticity
4 5 9 8 11 5 12 11 6 10 6 20 14 20 24 29 28 27 9 -2 0 22 39 -15 -21 38 26 11 35 8 -7 9 20 2 7 6 6 13
6 2 7 10 11 10 13 10 10 11 5 18 14 23 28 33 16 37 26 12 16 -7 26 38 50 -8 -7 4 -15 -2 8 15 9 13 10 11 9 5
-0 5 12 6 8 14 14 12 13 4 15 1 9 29 25 33 26 3 36 28 -4 14 36 -5 2 -14 -11 18 8 11 17 12 13 15 10 11 12 13
5 13 3 5 19 18 16 12 12 8 9 18 13 -12 22 26 35 17 23 25 30 3 12 24 1 -7 -27 12 11 8 10 8 14 16 12 9 19 12
11 5 5 12 21 13 5 13 8 2 7 11 16 21 8 5 19 10 5 13 18 29 17 25 15 8 7 9 13 16 17 16 8 7 6 6 6 9
7 5 8 19 18 14 10 1 10 12 13 -6 1 6 8 13 15 15 14 12 11 7 7 8 10 11 14 14 9 9 6 5 6 6 8 11 7 7
5 5 17 16 14 13 12 12 11 17 10 13 16 12 9 9 9 8 10 10 13 12 10 7 5 5 4 5 7 6 2 3 7 10 9 8 9 9
5 17 16 14 13 13 15 19 17 11 10 5 3 4 3 5 4 5 5 7 6 7 4 4 5 6 7 8 8 8 10 10 10 10 9 10 9 10
17 17 13 11 10 10 10 8 7 7 6 4 2 6 6 7 6 5 6 6 6 6 6 7 8 10 11 10 10 10 9 8 7 7 9 11 10 9
17 13 10 9 10 10 9 8 7 6 6 6 6 6 7 7 7 7 7 7 8 10 10 11 12 11 12 12 10 7 6 7 9 12 13 13 12 12
12 9 11 9 9 12 12 10 7 8 7 8 8 8 9 9 8 8 10 11 10 10 10 9 10 8 7 10 9 10 12 15 16 18 17 13 13 15
11 8 7 8 8 9 9 8 8 8 10 9 8 8 8 9 9 10 11 10 10 10 11 13 10 11 7 16 24 26 26 23 23 14 12 9 13 16
12 11 8 7 8 8 8 9 9 10 10 8 8 8 9 10 10 12 13 9 8 8 13 5 10 7 20 37 32 26 23 20 17 14 12 18 19 12
8 11 11 10 8 8 9 8 7 8 9 8 8 10 10 10 10 10 8 5 6 8 12 14 11 21 33 39 29 24 24 24 22 19 17 12 9 11
7 6 9 9 9 9 9 8 8 8 8 8 8 11 9 9 11 8 6 10 9 9 12 8 22 22 28 17 13 10 10 8 7 9 12 13 12 12
7 8 8 9 10 11 11 10 9 8 8 6 8 10 9 9 10 9 10 12 8 8 9 7 26 21 12 5 4 9 13 16 12 15 18 16 16 17
11 10 10 9 10 12 12 10 7 6 7 6 7 11 11 11 11 11 10 9 8 8 9 5 27 19 10 5 11 7 8 8 13 14 11 12 16 16
13 9 9 9 10 11 9 8 9 9 9 7 12 12 11 11 14 13 11 8 9 10 9 6 20 21 14 9 8 5 6 10 10 7 8 14 15 16
10 8 9 9 8 9 9 10 10 9 10 10 11 9 11 13 14 13 11 8 8 10 11 7 14 24 15 9 12 6 2 5 6 5 6 8 10 12
9 10 10 9 9 11 10 9 9 10 10 7 7 8 13 18 13 14 10 7 8 9 11 9 8 20 19 12 12 11 7 3 2 5 6 6 8 10
10 9 11 9 11 9 7 8 7 13 11 11 12 18 16 14 13 12 9 7 7 9 10 11 8 13 17 16 11 9 11 8 5 2 1 6 6 9
15 14 8 8 9 9 9 8 6 7 5 16 16 15 18 13 12 8 8 8 7 10 9 14 16 15 15 13 13 12 8 8 10 9 7 5 6 9
7 4 7 11 10 7 5 5 7 6 7 17 16 13 12 11 8 10 11 7 9 9 11 20 21 16 16 13 12 11 11 9 7 7 7 8 6 6
Height
5738 5736 5731 5727 5722 5716 5710 5705 5699 5695 5689 5679 5667 5659 5649 5644 5643 5646 5649 5651 5655 5656 5657 5660 5660 5660 5661 5662 5665 5666 5666 5668 5670 5672 5672 5674 5675 5676
5729 5726 5721 5717 5712 5706 5701 5695 5689 5682 5677 5668 5658 5648 5638 5632 5631 5634 5637 5643 5647 5647 5647 5649 5648 5649 5651 5651 5653 5653 5655 5657 5659 5659 5659 5660 5662 5662
5720 5716 5713 5708 5702 5696 5691 5686 5681 5674 5667 5659 5651 5641 5632 5626 5624 5624 5629 5635 5639 5642 5642 5642 5639 5639 5640 5642 5642 5642 5644 5645 5646 5646 5646 5646 5648 5648
5712 5708 5703 5698 5692 5686 5682 5678 5672 5666 5659 5653 5645 5637 5631 5624 5619 5622 5627 5631 5633 5636 5633 5631 5630 5630 5630 5632 5632 5632 5632 5632 5633 5633 5631 5632 5633 5633
5703 5699 5694 5688 5682 5678 5674 5669 5665 5659 5654 5647 5640 5634 5629 5625 5622 5622 5623 5625 5625 5624 5621 5620 5620 5619 5619 5619 5619 5620 5620 5619 5619 5619 5618 5618 5618 5618
5694 5690 5684 5678 5673 5669 5665 5661 5657 5652 5647 5642 5637 5632 5627 5623 5620 5619 5619 5619 5618 5616 5614 5613 5612 5611 5610 5610 5610 5608 5608 5606 5606 5605 5604 5603 5602 5601
5685 5680 5674 5669 5665 5661 5657 5653 5649 5645 5641 5636 5631 5626 5622 5619 5616 5614 5613 5611 5610 5609 5606 5605 5604 5602 5601 5598 5597 5595 5595 5592 5590 5590 5589 5587 5585 5585
5675 5670 5665 5661 5657 5654 5650 5646 5642 5639 5635 5630 5626 5622 5618 5615 5611 5608 5606 5604 5602 5600 5597 5594 5593 5590 5588 5586 5583 5580 5578 5577 5576 5574 5571 5569 5568 5566
5666 5662 5658 5654 5651 5647 5643 5640 5636 5633 5629 5625 5621 5617 5613 5610 5606 5603 5600 5597 5593 5590 5586 5583 5580 5577 5574 5571 5568 5565 5563 5561 5558 5555 5553 5551 5549 5547
5659 5655 5651 5647 5644 5640 5636 5633 5630 5627 5623 5619 5615 5610 5606 5602 5598 5594 5591 5586 5583 5579 5575 5572 5568 5564 5560 5556 5553 5550 5547 5544 5541 5538 5536 5534 5532 5530
5651 5647 5644 5640 5636 5633 5629 5626 5622 5618 5614 5610 5606 5601 5597 5593 5589 5585 5580 5576 5572 5568 5563 5559 5554 5549 5545 5540 5535 5530 5528 5526 5523 5521 5519 5518 5516 5514
5644 5640 5636 5633 5629 5626 5622 5618 5614 5610 5606 5601 5596 5592 5588 5583 5578 5574 5569 5565 5561 5557 5551 5546 5540 5534 5527 5521 5515 5509 5507 5506 5505 5505 5504 5503 5501 5500
5636 5632 5629 5625 5622 5618 5614 5610 5606 5601 5597 5592 5587 5582 5577 5572 5567 5563 5558 5553 5548 5544 5539 5532 5525 5517 5507 5498 5492 5490 5491 5490 5491 5490 5490 5488 5486 5486
5629 5625 5621 5617 5613 5609 5605 5601 5597 5592 5588 5583 5578 5572 5567 5562 5556 5552 5547 5542 5536 5531 5525 5518 5510 5501 5492 5485 5482 5478 5478 5477 5476 5475 5475 5475 5473 5472
5622 5618 5614 5609 5605 5601 5597 5593 5588 5583 5578 5573 5567 5561 5556 5550 5545 5540 5535 5529 5523 5518 5511 5504 5496 5490 5483 5479 5475 5471 5470 5467 5466 5465 5464 5462 5460 5458
5613 5609 5605 5600 5596 5592 5588 5584 5579 5574 5568 5562 5557 5551 5545 5539 5534 5528 5522 5517 5510 5505 5499 5493 5485 5480 5476 5472 5469 5465 5462 5460 5456 5454 5453 5450 5448 5445
5603 5600 5596 5592 5587 5583 5578 5573 5568 5563 5558 5552 5546 5540 5534 5528 5522 5516 5510 5504 5498 5492 5487 5482 5476 5471 5468 5464 5461 5457 5455 5452 5450 5447 5444 5443 5438 5434
5593 5590 5586 5582 5578 5573 5568 5563 5558 5553 5547 5540 5534 5528 5522 5516 5510 5504 5498 5492 5486 5480 5474 5469 5464 5461 5459 5455 5452 5449 5445 5444 5441 5439 5436 5434 5431 5424
5584 5580 5576 5572 5567 5562 5558 5553 5547 5542 5536 5529 5523 5517 5510 5503 5497 5491 5485 5480 5473 5468 5462 5456 5451 5448 5446 5443 5441 5437 5435 5433 5432 5429 5426 5424 5422 5418
5574 5570 5566 5562 5557 5552 5547 5542 5537 5531 5524 5518 5511 5504 5497 5490 5483 5478 5473 5467 5461 5455 5449 5442 5438 5435 5432 5430 5429 5424 5420 5421 5419 5419 5416 5413 5411 5409
5564 5560 5556 5551 5547 5542 5537 5531 5524 5518 5511 5504 5497 5489 5482 5476 5470 5464 5459 5454 5448 5442 5435 5428 5422 5419 5416 5414 5414 5412 5408 5406 5404 5404 5404 5402 5401 5400
5554 5550 5545 5541 5536 5531 5525 5518 5512 5505 5498 5491 5483 5475 5469 5463 5457 5451 5445 5439 5432 5426 5420 5413 5406 5401 5398 5396 5396 5396 5394 5391 5390 5389 5388 5388 5389 5390
5543 5539 5534 5530 5524 5519 5513 5506 5499 5492 5485 5477 5470 5463 5456 5449 5443 5438 5431 5424 5417 5410 5402 5396 5389 5383 5379 5377 5376 5377 5377 5377 5375 5374 5374 5370 5372 5372